Lihue, HI

1:00 PM HST on May 23, 2017 (GMT -1000)
Lihue

Weather History for PHLI - April, 2014

Change the Weather History Date:

Sunday, April 13, 2014

  Actual Average Record
Temperature  
Mean Temperature 75 °F 74 °F  
Max Temperature 78 °F 79 °F 83 °F (1961)
Min Temperature 71 °F 69 °F 60 °F (1966)
Degree Days  
Heating Degree Days 0 0  
Month to date heating degree days 0 0  
Since 1 July heating degree days 0 0  
Cooling Degree Days 10 9  
Month to date cooling degree days 117 116  
Year to date cooling degree days 704 750  
Growing Degree Days 24 (Base 50)    
Moisture  
Dew Point 64 °F    
Average Humidity 69    
Maximum Humidity 73    
Minimum Humidity 64    
Precipitation  
Precipitation T in 0.08 in 2.01 in (1965)
Month to date precipitation 0.25 1.19  
Year to date precipitation 12.58 12.71  
Snow  
Snow 0.00 in - - ()
Month to date snowfall 0.0  
Since 1 July snowfall 0.0  
Snow Depth 0.00 in    
Sea Level Pressure  
Sea Level Pressure 30.17 in    
Wind  
Wind Speed 22 mph (NE)    
Max Wind Speed 26 mph    
Max Gust Speed 33 mph    
Visibility 10 miles    
Events      
T = Trace of Precipitation, MM = Missing Value Source: NWS Daily Summary

Daily Weather History Graph

Daily Weather History Graph

Search for Another Location

Airport or City:

Trip Planner

Search our weather history database for the weather conditions in past years. The results will help you decide how hot, cold, wet, or windy it might be!

Date:

Astronomy

Apr. 13, 2014 Rise Set
Actual Time 6:19 AM HST 6:56 PM HST
Civil Twilight 5:56 AM HST 7:19 PM HST
Nautical Twilight 5:29 AM HST 7:46 PM HST
Astronomical Twilight 5:02 AM HST 8:13 PM HST
Moon 5:53 PM HST (4/13) 5:13 AM HST (4/13)
Length of Visible Light 13h 22m
Length of Day
12h 37m
Waxing Gibbous, 98% of the Moon is Illuminated
Apr 13
Waxing Gibbous
Apr 14
Full
Apr 21
Last Quarter
Apr 28
New
May 6
First Quarter

Hourly Weather History & Observations

Time (HST) Temp. Dew Point Humidity Pressure Visibility Wind Dir Wind Speed Gust Speed Precip Events Conditions
12:18 AM 71.6 °F 60.8 °F 69% 30.18 in 10.0 mi ENE 21.9 mph 32.2 mph N/A   Overcast
12:27 AM 71.6 °F 60.8 °F 69% 30.18 in 10.0 mi NE 20.7 mph 27.6 mph N/A   Overcast
12:53 AM 71.1 °F 62.1 °F 73% 30.17 in 10.0 mi NE 23.0 mph 29.9 mph N/A   Overcast
1:53 AM 71.1 °F 61.0 °F 70% 30.16 in 10.0 mi NE 19.6 mph - N/A   Overcast
2:53 AM 72.0 °F 61.0 °F 68% 30.14 in 10.0 mi NE 21.9 mph - N/A   Overcast
3:53 AM 72.0 °F 61.0 °F 68% 30.14 in 10.0 mi NE 25.3 mph 31.1 mph N/A   Overcast
4:53 AM 72.0 °F 61.0 °F 68% 30.14 in 10.0 mi NE 23.0 mph - N/A   Overcast
5:53 AM 72.0 °F 61.0 °F 68% 30.16 in 10.0 mi NE 23.0 mph - N/A   Overcast
6:53 AM 72.0 °F 63.0 °F 73% 30.18 in 10.0 mi NE 23.0 mph 31.1 mph N/A   Overcast
7:53 AM 73.0 °F 63.0 °F 71% 30.20 in 10.0 mi NE 23.0 mph - N/A   Overcast
8:53 AM 73.0 °F 63.0 °F 71% 30.21 in 10.0 mi NE 24.2 mph 32.2 mph 0.00 in   Overcast
9:53 AM 73.9 °F 64.0 °F 71% 30.21 in 10.0 mi NE 20.7 mph 26.5 mph N/A   Overcast
10:53 AM 75.9 °F 64.0 °F 67% 30.21 in 10.0 mi NE 23.0 mph 28.8 mph 0.00 in   Mostly Cloudy
11:53 AM 77.0 °F 64.9 °F 66% 30.20 in 10.0 mi NE 20.7 mph 31.1 mph N/A   Overcast
12:50 PM 75.2 °F 64.4 °F 69% 30.18 in 10.0 mi ENE 20.7 mph - N/A   Overcast
12:53 PM 75.9 °F 64.9 °F 69% 30.18 in 10.0 mi NE 20.7 mph - N/A   Overcast
1:05 PM 78.8 °F 66.2 °F 65% 30.18 in 10.0 mi ENE 23.0 mph 27.6 mph N/A   Mostly Cloudy
1:40 PM 77.0 °F 64.4 °F 65% 30.17 in 10.0 mi NE 18.4 mph 27.6 mph N/A   Overcast
1:51 PM 77.0 °F 66.2 °F 69% 30.16 in 10.0 mi NE 19.6 mph 28.8 mph N/A   Overcast
1:53 PM 77.0 °F 66.2 °F 69% 30.16 in 10.0 mi NE 21.9 mph - N/A   Overcast
2:53 PM 75.9 °F 64.9 °F 69% 30.15 in 10.0 mi NE 19.6 mph - N/A   Overcast
3:42 PM 75.2 °F 64.4 °F 69% 30.15 in 10.0 mi NE 19.6 mph - N/A   Mostly Cloudy
3:53 PM 75.0 °F 64.9 °F 71% 30.14 in 10.0 mi NE 23.0 mph - N/A   Overcast
4:03 PM 75.2 °F 66.2 °F 73% 30.14 in 10.0 mi NE 19.6 mph 27.6 mph N/A   Overcast
4:10 PM 75.2 °F 66.2 °F 73% 30.14 in 10.0 mi NE 21.9 mph 27.6 mph N/A   Overcast
4:53 PM 75.0 °F 64.9 °F 71% 30.13 in 10.0 mi ENE 21.9 mph - N/A   Overcast
5:04 PM 73.4 °F 64.4 °F 73% 30.13 in 10.0 mi ENE 23.0 mph 29.9 mph N/A   Overcast
5:16 PM 73.4 °F 64.4 °F 73% 30.14 in 10.0 mi ENE 20.7 mph 31.1 mph N/A   Overcast
5:53 PM 73.0 °F 66.0 °F 79% 30.14 in 9.0 mi NE 23.0 mph 28.8 mph N/A   Overcast
6:53 PM 73.0 °F 64.0 °F 73% 30.15 in 10.0 mi NE 23.0 mph 31.1 mph N/A   Overcast
7:53 PM 73.0 °F 64.0 °F 73% 30.17 in 10.0 mi NE 21.9 mph 28.8 mph N/A   Overcast
8:53 PM 72.0 °F 63.0 °F 73% 30.20 in 10.0 mi NE 21.9 mph - N/A   Overcast
9:53 PM 72.0 °F 64.0 °F 76% 30.21 in 10.0 mi NE 25.3 mph 33.4 mph N/A   Overcast
10:53 PM 72.0 °F 62.1 °F 71% 30.23 in 10.0 mi NE 25.3 mph 33.4 mph N/A   Overcast
11:53 PM 72.0 °F 61.0 °F 68% 30.22 in 10.0 mi ENE 23.0 mph 29.9 mph N/A   Mostly Cloudy